TimeMDT,TemperatureF,Dew PointF,Humidity,Sea Level PressureIn,VisibilityMPH,Wind Direction,Wind SpeedMPH,Gust SpeedMPH,PrecipitationIn,Events,Conditions,WindDirDegrees,DateUTC
12:54 AM,30.9,28.0,89,30.15,10.0,ESE,4.6,-,N/A,,Clear,120,2012-11-03 06:54:00
1:54 AM,30.0,27.0,88,30.14,10.0,East,5.8,-,N/A,,Clear,100,2012-11-03 07:54:00
2:54 AM,28.9,26.1,89,30.14,10.0,SE,4.6,-,N/A,,Clear,130,2012-11-03 08:54:00
3:54 AM,28.0,25.0,88,30.14,10.0,SSE,4.6,-,N/A,,Clear,150,2012-11-03 09:54:00
4:54 AM,28.0,24.1,85,30.14,10.0,SE,3.5,-,N/A,,Clear,140,2012-11-03 10:54:00
5:54 AM,28.0,24.1,85,30.16,10.0,SE,5.8,-,N/A,,Clear,140,2012-11-03 11:54:00
6:54 AM,28.9,25.0,85,30.16,10.0,SE,5.8,-,N/A,,Clear,140,2012-11-03 12:54:00
7:54 AM,28.0,24.1,85,30.15,10.0,SE,4.6,-,N/A,,Clear,140,2012-11-03 13:54:00
8:54 AM,30.0,26.1,85,30.15,10.0,SE,5.8,-,N/A,,Clear,130,2012-11-03 14:54:00
9:54 AM,36.0,30.0,79,30.13,10.0,ESE,5.8,-,N/A,,Clear,110,2012-11-03 15:54:00
10:54 AM,44.1,32.0,63,30.12,10.0,East,3.5,-,N/A,,Clear,90,2012-11-03 16:54:00
11:54 AM,52.0,30.0,43,30.10,10.0,West,10.4,-,N/A,,Clear,260,2012-11-03 17:54:00
12:54 PM,53.1,27.0,37,30.08,10.0,West,4.6,-,N/A,,Clear,270,2012-11-03 18:54:00
1:54 PM,55.0,27.0,34,30.05,10.0,Calm,Calm,-,N/A,,Clear,0,2012-11-03 19:54:00
2:54 PM,55.9,28.0,34,30.04,10.0,NW,6.9,-,N/A,,Clear,320,2012-11-03 20:54:00
3:54 PM,54.0,28.9,38,30.05,10.0,WNW,4.6,-,N/A,,Clear,290,2012-11-03 21:54:00
4:54 PM,54.0,30.9,41,30.05,10.0,NW,4.6,-,N/A,,Clear,310,2012-11-03 22:54:00
5:54 PM,48.0,30.9,52,30.06,10.0,West,6.9,-,N/A,,Clear,280,2012-11-03 23:54:00
6:54 PM,44.1,32.0,63,30.09,10.0,South,9.2,-,N/A,,Clear,190,2012-11-04 00:54:00
7:54 PM,48.0,30.9,52,30.09,10.0,WSW,12.7,-,N/A,,Overcast,250,2012-11-04 01:54:00
8:54 PM,44.1,41.0,89,30.10,10.0,SSW,4.6,-,0.04,Rain,Light Rain,200,2012-11-04 02:54:00
9:54 PM,44.1,39.9,85,30.06,10.0,Calm,Calm,-,0.00,,Overcast,0,2012-11-04 03:54:00
10:54 PM,46.0,36.0,68,30.03,10.0,NW,4.6,-,N/A,,Overcast,320,2012-11-04 04:54:00
11:54 PM,46.0,35.1,66,30.01,10.0,WNW,3.5,-,N/A,,Scattered Clouds,300,2012-11-04 05:54:00